EN

Hourly Weather Altaj

Today, 22 January, Friday

Time Temperature Precipitation Wind Pressure Humidity
00:00 -16°C° 0 mm 2 mps 558 mmHg 69%
01:00 -16°C° 0 mm 2 mps 557 mmHg 68%
02:00 -14°C° 0 mm 1 mps 557 mmHg 67%
03:00 -14°C° 0 mm 1 mps 557 mmHg 66%
04:00 -14°C° 0 mm 1 mps 557 mmHg 65%
05:00 -15°C° 0 mm 1 mps 557 mmHg 63%
06:00 -15°C° 0 mm 1 mps 556 mmHg 62%
07:00 -14°C° 0 mm 1 mps 557 mmHg 62%
08:00 -14°C° 0 mm 1 mps 557 mmHg 62%
09:00 -13°C° 0 mm 1 mps 558 mmHg 62%
10:00 -12°C° 0 mm 1 mps 558 mmHg 64%
11:00 -11°C° 0 mm 1 mps 558 mmHg 67%
12:00 -11°C° 0 mm 1 mps 558 mmHg 69%
13:00 -11°C° 0 mm 1 mps 557 mmHg 66%
14:00 -12°C° 0 mm 1 mps 557 mmHg 63%
15:00 -12°C° 0 mm 1 mps 556 mmHg 60%
16:00 -15°C° 0 mm 2 mps 556 mmHg 57%
17:00 -15°C° 0 mm 2 mps 556 mmHg 53%
18:00 -16°C° 0 mm 2 mps 556 mmHg 50%
19:00 -16°C° 0 mm 2 mps 556 mmHg 50%
20:00 -16°C° 0 mm 2 mps 556 mmHg 49%
21:00 -16°C° 0 mm 2 mps 556 mmHg 49%
22:00 -16°C° 0 mm 2 mps 556 mmHg 49%
23:00 -16°C° 0 mm 2 mps 556 mmHg 48%

Tomorrow, 23 January, Saturday

Time Temperature Precipitation Wind Pressure Humidity
00:00 -16°C° 0 mm 2 mps 556 mmHg 48%
01:00 -16°C° 0 mm 2 mps 557 mmHg 47%
02:00 -16°C° 0 mm 2 mps 557 mmHg 46%
03:00 -16°C° 0 mm 2 mps 557 mmHg 45%
04:00 -16°C° 0 mm 2 mps 556 mmHg 44%
05:00 -17°C° 0 mm 2 mps 556 mmHg 44%
06:00 -15°C° 0 mm 1 mps 556 mmHg 43%
07:00 -16°C° 0 mm 2 mps 557 mmHg 45%
08:00 -15°C° 0 mm 2 mps 558 mmHg 47%
09:00 -14°C° 0 mm 2 mps 558 mmHg 49%
10:00 -13°C° 0 mm 2 mps 558 mmHg 54%
11:00 -13°C° 0 mm 2 mps 559 mmHg 58%
12:00 -12°C° 0 mm 2 mps 559 mmHg 63%
13:00 -12°C° 0 mm 2 mps 559 mmHg 62%
14:00 -13°C° 0 mm 2 mps 558 mmHg 62%
15:00 -13°C° 0 mm 2 mps 558 mmHg 61%
16:00 -14°C° 0 mm 2 mps 558 mmHg 61%
17:00 -15°C° 0 mm 2 mps 558 mmHg 60%
18:00 -15°C° 0 mm 2 mps 558 mmHg 60%
19:00 -14°C° 0 mm 1 mps 558 mmHg 63%
20:00 -14°C° 0 mm 1 mps 558 mmHg 66%
21:00 -14°C° 0 mm 1 mps 558 mmHg 69%
22:00 -15°C° 0 mm 1 mps 558 mmHg 72%
23:00 -15°C° 0 mm 1 mps 557 mmHg 74%

Day after tomorrow, 24 January, Sunday

Time Temperature Precipitation Wind Pressure Humidity
00:00 -15°C° 0 mm 1 mps 557 mmHg 77%
01:00 -15°C° 0.1 mm 1 mps 557 mmHg 82%
02:00 -15°C° 0.1 mm 1 mps 558 mmHg 88%
03:00 -15°C° 0.1 mm 1 mps 558 mmHg 94%
04:00 -16°C° 0.2 mm 1 mps 558 mmHg 95%
05:00 -16°C° 0.2 mm 1 mps 558 mmHg 95%
06:00 -17°C° 0.2 mm 1 mps 558 mmHg 96%
07:00 -17°C° 0.2 mm 1 mps 558 mmHg 95%
08:00 -19°C° 0.2 mm 2 mps 559 mmHg 95%
09:00 -19°C° 0.2 mm 2 mps 559 mmHg 94%
10:00 -18°C° 0.2 mm 2 mps 559 mmHg 93%
11:00 -18°C° 0.2 mm 2 mps 559 mmHg 92%
12:00 -18°C° 0.2 mm 2 mps 559 mmHg 91%
13:00 -18°C° 0.1 mm 2 mps 560 mmHg 91%
14:00 -19°C° 0.1 mm 2 mps 560 mmHg 92%
15:00 -19°C° 0.1 mm 2 mps 560 mmHg 93%
16:00 -20°C° 0.2 mm 2 mps 560 mmHg 91%
17:00 -20°C° 0.2 mm 2 mps 561 mmHg 90%
18:00 -21°C° 0.2 mm 2 mps 561 mmHg 89%
19:00 -24°C° 0.2 mm 3 mps 561 mmHg 86%
20:00 -25°C° 0.2 mm 3 mps 562 mmHg 83%
21:00 -25°C° 0.2 mm 3 mps 562 mmHg 80%
22:00 -27°C° 0 mm 3 mps 561 mmHg 79%
23:00 -27°C° 0 mm 2 mps 560 mmHg 78%

25 January, Monday

Time Temperature Precipitation Wind Pressure Humidity
00:00 -28°C° 0 mm 2 mps 560 mmHg 77%
01:00 -28°C° 0 mm 2 mps 559 mmHg 72%
02:00 -28°C° 0 mm 2 mps 559 mmHg 66%
03:00 -28°C° 0 mm 2 mps 559 mmHg 61%
04:00 -30°C° 0 mm 3 mps 559 mmHg 63%
05:00 -29°C° 0 mm 3 mps 559 mmHg 64%
06:00 -29°C° 0 mm 3 mps 560 mmHg 66%
07:00 -27°C° 0 mm 3 mps 560 mmHg 68%
08:00 -27°C° 0 mm 3 mps 560 mmHg 70%
09:00 -26°C° 0 mm 3 mps 561 mmHg 71%
10:00 -26°C° 0 mm 4 mps 560 mmHg 70%
11:00 -26°C° 0 mm 5 mps 560 mmHg 69%
12:00 -27°C° 0 mm 6 mps 560 mmHg 68%
13:00 -27°C° 0 mm 6 mps 560 mmHg 71%
14:00 -27°C° 0 mm 6 mps 559 mmHg 74%
15:00 -28°C° 0 mm 6 mps 559 mmHg 76%
16:00 -27°C° 0 mm 4 mps 558 mmHg 76%
17:00 -29°C° 0 mm 3 mps 558 mmHg 76%
18:00 -28°C° 0 mm 2 mps 557 mmHg 76%
19:00 -28°C° 0 mm 2 mps 557 mmHg 73%
20:00 -29°C° 0 mm 2 mps 558 mmHg 70%
21:00 -29°C° 0 mm 2 mps 558 mmHg 67%
22:00 -29°C° 0 mm 2 mps 558 mmHg 67%
23:00 -30°C° 0 mm 2 mps 558 mmHg 67%

26 January, Tuesday

Time Temperature Precipitation Wind Pressure Humidity
00:00 -30°C° 0 mm 2 mps 558 mmHg 67%
01:00 -30°C° 0 mm 2 mps 558 mmHg 68%
02:00 -30°C° 0 mm 2 mps 558 mmHg 68%
03:00 -28°C° 0 mm 1 mps 558 mmHg 68%
04:00 -29°C° 0 mm 1 mps 558 mmHg 68%
05:00 -29°C° 0 mm 1 mps 557 mmHg 68%
06:00 -29°C° 0 mm 1 mps 557 mmHg 68%
07:00 -29°C° 0 mm 1 mps 558 mmHg 67%
08:00 -28°C° 0 mm 1 mps 558 mmHg 66%
09:00 -28°C° 0 mm 1 mps 558 mmHg 66%
10:00 -27°C° 0 mm 1 mps 559 mmHg 66%
11:00 -25°C° 0 mm 1 mps 559 mmHg 67%
12:00 -23°C° 0 mm 0 mps 560 mmHg 67%
13:00 -24°C° 0 mm 1 mps 559 mmHg 68%
14:00 -25°C° 0 mm 1 mps 558 mmHg 69%
15:00 -27°C° 0 mm 1 mps 557 mmHg 70%
16:00 -28°C° 0 mm 1 mps 557 mmHg 67%
17:00 -28°C° 0 mm 1 mps 557 mmHg 64%
18:00 -29°C° 0 mm 1 mps 556 mmHg 61%
19:00 -30°C° 0 mm 1 mps 556 mmHg 62%
20:00 -30°C° 0 mm 1 mps 556 mmHg 63%
21:00 -30°C° 0 mm 1 mps 556 mmHg 64%
22:00 -30°C° 0 mm 1 mps 556 mmHg 65%
23:00 -30°C° 0 mm 1 mps 556 mmHg 65%

27 January, Wednesday

Time Temperature Precipitation Wind Pressure Humidity
00:00 -30°C° 0 mm 1 mps 556 mmHg 66%
01:00 -30°C° 0 mm 1 mps 556 mmHg 67%
02:00 -30°C° 0 mm 1 mps 556 mmHg 68%
03:00 -31°C° 0 mm 1 mps 556 mmHg 68%
04:00 -31°C° 0 mm 1 mps 556 mmHg 69%
05:00 -31°C° 0 mm 1 mps 556 mmHg 70%
06:00 -32°C° 0 mm 1 mps 556 mmHg 71%
07:00 -31°C° 0 mm 1 mps 557 mmHg 72%
08:00 -31°C° 0 mm 1 mps 558 mmHg 73%
09:00 -30°C° 0 mm 1 mps 558 mmHg 73%
10:00 -29°C° 0 mm 1 mps 559 mmHg 75%
11:00 -28°C° 0 mm 1 mps 560 mmHg 76%
12:00 -27°C° 0 mm 1 mps 560 mmHg 78%
13:00 -28°C° 0 mm 1 mps 560 mmHg 81%
14:00 -29°C° 0 mm 1 mps 560 mmHg 83%
15:00 -30°C° 0 mm 1 mps 559 mmHg 86%
16:00 -30°C° 0 mm 1 mps 560 mmHg 86%
17:00 -31°C° 0 mm 1 mps 560 mmHg 87%
18:00 -32°C° 0 mm 1 mps 560 mmHg 88%
19:00 -36°C° 0 mm 2 mps 561 mmHg 88%
20:00 -36°C° 0 mm 2 mps 561 mmHg 88%
21:00 -36°C° 0 mm 2 mps 561 mmHg 87%
22:00 -36°C° 0 mm 2 mps 562 mmHg 86%
23:00 -36°C° 0 mm 2 mps 562 mmHg 84%
Show more